Previsão horária em Abrest

Hoje, 18 Maio, Terça-feira

Tempo Temperatura Precipitação Vento Pressão Humidade
00:00 +6°C° 0 mm 2 m/s 735 mmHg 92%
01:00 +6°C° 0 mm 2 m/s 734 mmHg 93%
02:00 +6°C° 0 mm 2 m/s 734 mmHg 93%
03:00 +5°C° 0 mm 2 m/s 734 mmHg 93%
04:00 +6°C° 0 mm 2 m/s 734 mmHg 90%
05:00 +8°C° 0 mm 1 m/s 734 mmHg 86%
06:00 +9°C° 0 mm 1 m/s 734 mmHg 83%
07:00 +10°C° 0 mm 1 m/s 734 mmHg 75%
08:00 +12°C° 0 mm 1 m/s 734 mmHg 68%
09:00 +13°C° 0 mm 1 m/s 734 mmHg 61%
10:00 +14°C° 0 mm 2 m/s 733 mmHg 59%
11:00 +14°C° 0 mm 2 m/s 733 mmHg 57%
12:00 +15°C° 0 mm 2 m/s 733 mmHg 54%
13:00 +15°C° 0.2 mm 2 m/s 733 mmHg 57%
14:00 +15°C° 0.2 mm 2 m/s 733 mmHg 60%
15:00 +14°C° 0.2 mm 2 m/s 733 mmHg 62%
16:00 +13°C° 0.3 mm 2 m/s 733 mmHg 71%
17:00 +12°C° 0.3 mm 2 m/s 734 mmHg 80%
18:00 +10°C° 0.3 mm 2 m/s 734 mmHg 89%
19:00 +9°C° 0 mm 2 m/s 734 mmHg 90%
20:00 +8°C° 0 mm 2 m/s 735 mmHg 92%
21:00 +8°C° 0 mm 1 m/s 735 mmHg 94%
22:00 +7°C° 0 mm 1 m/s 736 mmHg 94%
23:00 +7°C° 0 mm 1 m/s 736 mmHg 94%

Amanhã, 19 Maio, Quarta-feira

Tempo Temperatura Precipitação Vento Pressão Humidade
00:00 +7°C° 0 mm 1 m/s 736 mmHg 95%
01:00 +7°C° 0.1 mm 1 m/s 736 mmHg 95%
02:00 +8°C° 0.1 mm 1 m/s 736 mmHg 95%
03:00 +8°C° 0.1 mm 1 m/s 736 mmHg 96%
04:00 +9°C° 0 mm 1 m/s 736 mmHg 95%
05:00 +9°C° 0 mm 1 m/s 736 mmHg 94%
06:00 +9°C° 0 mm 1 m/s 736 mmHg 94%
07:00 +9°C° 0.1 mm 2 m/s 737 mmHg 87%
08:00 +10°C° 0.1 mm 3 m/s 737 mmHg 81%
09:00 +11°C° 0.1 mm 4 m/s 737 mmHg 74%
10:00 +11°C° 0.2 mm 4 m/s 736 mmHg 73%
11:00 +12°C° 0.2 mm 4 m/s 736 mmHg 72%
12:00 +12°C° 0.2 mm 4 m/s 736 mmHg 71%
13:00 +12°C° 0.4 mm 4 m/s 736 mmHg 73%
14:00 +12°C° 0.4 mm 5 m/s 736 mmHg 75%
15:00 +12°C° 0.4 mm 5 m/s 736 mmHg 77%
16:00 +12°C° 0.5 mm 4 m/s 736 mmHg 81%
17:00 +11°C° 0.5 mm 4 m/s 736 mmHg 85%
18:00 +10°C° 0.5 mm 3 m/s 737 mmHg 88%
19:00 +9°C° 0.1 mm 3 m/s 737 mmHg 90%
20:00 +8°C° 0.1 mm 2 m/s 738 mmHg 91%
21:00 +7°C° 0.1 mm 1 m/s 738 mmHg 93%
22:00 +7°C° 0 mm 1 m/s 738 mmHg 94%
23:00 +7°C° 0 mm 1 m/s 738 mmHg 94%

Depois de amanhã, 20 Maio, Quinta-feira

Tempo Temperatura Precipitação Vento Pressão Humidade
00:00 +6°C° 0 mm 1 m/s 739 mmHg 95%
01:00 +6°C° 0 mm 1 m/s 739 mmHg 95%
02:00 +6°C° 0 mm 1 m/s 739 mmHg 95%
03:00 +5°C° 0 mm 1 m/s 739 mmHg 96%
04:00 +6°C° 0 mm 1 m/s 739 mmHg 95%
05:00 +7°C° 0 mm 1 m/s 739 mmHg 94%
06:00 +8°C° 0 mm 1 m/s 739 mmHg 93%
07:00 +10°C° 0 mm 1 m/s 739 mmHg 83%
08:00 +11°C° 0 mm 1 m/s 739 mmHg 74%
09:00 +13°C° 0 mm 1 m/s 739 mmHg 64%
10:00 +14°C° 0 mm 1 m/s 739 mmHg 57%
11:00 +16°C° 0 mm 1 m/s 738 mmHg 51%
12:00 +18°C° 0 mm 1 m/s 738 mmHg 44%
13:00 +18°C° 0 mm 1 m/s 738 mmHg 43%
14:00 +18°C° 0 mm 1 m/s 737 mmHg 43%
15:00 +19°C° 0 mm 1 m/s 737 mmHg 43%
16:00 +18°C° 0 mm 1 m/s 737 mmHg 50%
17:00 +16°C° 0 mm 1 m/s 736 mmHg 57%
18:00 +14°C° 0 mm 0 m/s 736 mmHg 64%
19:00 +14°C° 0 mm 1 m/s 736 mmHg 65%
20:00 +12°C° 0 mm 1 m/s 736 mmHg 66%
21:00 +11°C° 0 mm 1 m/s 736 mmHg 68%
22:00 +9°C° 0 mm 2 m/s 735 mmHg 68%
23:00 +9°C° 0 mm 2 m/s 735 mmHg 68%

21 Maio, Sexta-feira

Tempo Temperatura Precipitação Vento Pressão Humidade
00:00 +9°C° 0 mm 2 m/s 734 mmHg 68%
01:00 +9°C° 0 mm 2 m/s 734 mmHg 67%
02:00 +9°C° 0 mm 2 m/s 733 mmHg 67%
03:00 +9°C° 0 mm 2 m/s 733 mmHg 66%
04:00 +9°C° 0 mm 2 m/s 732 mmHg 66%
05:00 +10°C° 0 mm 2 m/s 732 mmHg 66%
06:00 +12°C° 0 mm 2 m/s 732 mmHg 66%
07:00 +15°C° 0 mm 2 m/s 731 mmHg 61%
08:00 +17°C° 0 mm 2 m/s 731 mmHg 56%
09:00 +19°C° 0 mm 3 m/s 731 mmHg 52%
10:00 +19°C° 0 mm 2 m/s 730 mmHg 57%
11:00 +19°C° 0 mm 2 m/s 730 mmHg 62%
12:00 +20°C° 0 mm 1 m/s 729 mmHg 67%
13:00 +20°C° 0 mm 1 m/s 729 mmHg 68%
14:00 +19°C° 0 mm 2 m/s 728 mmHg 69%
15:00 +19°C° 0 mm 2 m/s 727 mmHg 70%
16:00 +18°C° 0.5 mm 2 m/s 727 mmHg 77%
17:00 +16°C° 0.5 mm 2 m/s 727 mmHg 85%
18:00 +15°C° 0.5 mm 2 m/s 727 mmHg 93%
19:00 +13°C° 3.4 mm 3 m/s 728 mmHg 94%
20:00 +11°C° 3.4 mm 4 m/s 728 mmHg 95%
21:00 +10°C° 3.4 mm 4 m/s 729 mmHg 96%
22:00 +8°C° 1.5 mm 4 m/s 729 mmHg 96%
23:00 +9°C° 1.5 mm 3 m/s 729 mmHg 96%

22 Maio, Sábado

Tempo Temperatura Precipitação Vento Pressão Humidade
00:00 +8°C° 1.5 mm 2 m/s 729 mmHg 96%
01:00 +8°C° 0.1 mm 2 m/s 729 mmHg 95%
02:00 +8°C° 0.1 mm 2 m/s 729 mmHg 94%
03:00 +8°C° 0.1 mm 2 m/s 729 mmHg 94%
04:00 +8°C° 0 mm 3 m/s 730 mmHg 92%
05:00 +8°C° 0 mm 3 m/s 730 mmHg 91%
06:00 +8°C° 0 mm 3 m/s 730 mmHg 89%
07:00 +10°C° 0 mm 3 m/s 730 mmHg 79%
08:00 +11°C° 0 mm 4 m/s 730 mmHg 68%
09:00 +12°C° 0 mm 5 m/s 730 mmHg 58%
10:00 +14°C° 0 mm 5 m/s 730 mmHg 51%
11:00 +15°C° 0 mm 5 m/s 730 mmHg 45%
12:00 +16°C° 0 mm 5 m/s 730 mmHg 39%
13:00 +16°C° 0.1 mm 5 m/s 730 mmHg 45%
14:00 +15°C° 0.1 mm 5 m/s 730 mmHg 50%
15:00 +15°C° 0.1 mm 5 m/s 730 mmHg 55%
16:00 +14°C° 0.2 mm 4 m/s 730 mmHg 63%
17:00 +12°C° 0.2 mm 4 m/s 730 mmHg 71%
18:00 +11°C° 0.2 mm 4 m/s 731 mmHg 79%
19:00 +10°C° 0.1 mm 3 m/s 731 mmHg 82%
20:00 +8°C° 0.1 mm 3 m/s 732 mmHg 85%
21:00 +7°C° 0.1 mm 2 m/s 732 mmHg 89%
22:00 +7°C° 0 mm 2 m/s 732 mmHg 89%
23:00 +6°C° 0 mm 2 m/s 733 mmHg 90%

23 Maio, Domingo

Tempo Temperatura Precipitação Vento Pressão Humidade
00:00 +6°C° 0 mm 2 m/s 733 mmHg 90%
01:00 +6°C° 0 mm 2 m/s 733 mmHg 90%
02:00 +6°C° 0 mm 2 m/s 733 mmHg 91%
03:00 +6°C° 0 mm 2 m/s 734 mmHg 91%
04:00 +7°C° 0 mm 2 m/s 734 mmHg 89%
05:00 +8°C° 0 mm 2 m/s 734 mmHg 88%
06:00 +8°C° 0 mm 2 m/s 735 mmHg 86%
07:00 +9°C° 0 mm 2 m/s 735 mmHg 82%
08:00 +10°C° 0 mm 2 m/s 735 mmHg 77%
09:00 +11°C° 0 mm 3 m/s 735 mmHg 72%
10:00 +12°C° 0.1 mm 3 m/s 735 mmHg 66%
11:00 +13°C° 0.1 mm 3 m/s 735 mmHg 60%
12:00 +14°C° 0.1 mm 3 m/s 735 mmHg 54%
13:00 +14°C° 0.1 mm 4 m/s 735 mmHg 58%
14:00 +15°C° 0.1 mm 4 m/s 735 mmHg 62%
15:00 +15°C° 0.1 mm 5 m/s 735 mmHg 66%
16:00 +14°C° 0.3 mm 4 m/s 735 mmHg 71%
17:00 +13°C° 0.3 mm 4 m/s 735 mmHg 77%
18:00 +12°C° 0.3 mm 4 m/s 735 mmHg 83%
19:00 +10°C° 0 mm 3 m/s 736 mmHg 86%
20:00 +9°C° 0 mm 2 m/s 737 mmHg 90%
21:00 +8°C° 0 mm 2 m/s 737 mmHg 93%
22:00 +7°C° 0 mm 2 m/s 738 mmHg 94%
23:00 +7°C° 0 mm 2 m/s 738 mmHg 94%
Mostrar mais

Necessitamos do seu Consentimento

A Meteoprog e os seus Fornecedores de Serviços podem armazenar e aceder a dados pessoais como cookies, identificadores do dispositivo ou outras tecnologias semelhantes existentes no seu dispositivo e processar estes dados para personalizar conteúdos e anúncios, assim como funcionalidades nas redes sociais e análise de tráfego.

  • Armazenar e/ou aceder a informações no seu dispositivo

    Os cookies, identificadores do dispositivo ou outras informações podem ser armazenados ou acedidos no seu dispositivo, para os fins acima indicados.

  • Anúncios e conteúdos personalizados, medição de anúncios e conteúdos, dados sobre o público-alvo e desenvolvimento de produtos

    Os anúncios e os conteúdos podem ser personalizados com base num perfil. Podem ser adicionados dados adicionais para uma maior personalização dos anúncios e dos conteúdos. A eficácia dos anúncios e dos conteúdos pode ser medida. Podem ser obtidas informações sobre o público que visualizou os anúncios e os conteúdos. Estes dados podem ser usados para desenvolver ou melhorar sistemas, softwares ou a experiência do utilizador.

Ao clicar em "Eu concordo”, permitirá o uso de cookies, identificadores do dispositivo e web beacons mencionados ou outras tecnologias semelhantes. As configurações do navegador do seu dispositivo podem ser alteradas.

Para certos fins, podem ser invocados interesses legítimos ao invés de consentimento. Pode ler mais informação sobre este assunto na nossa Política de Privacidade e Cookies.